This demonstration page uses our WeatherBlox Daily Observations layout. Learn more.

Left ArrowRight Arrow

39.95238, -75.16362

Hourly Observations for January 12, 2022

Temp ( °F °C ) Dew Point ( °F °C ) Humidity (%) Winds ( mph kmh ) Pressure ( in mb ) Visibility ( mi km ) Precip ( " mm )
12:54 am 00:54 Clear 21 -6.1 6 -14.4 52 52 S 6 9 30.46 1032 10 16 0.00 0.00
1:54 am 01:54 Mostly Clear 21 -6.1 6 -14.4 52 52 SSE 9 15 30.43 1030 10 16 0.00 0.00
2:54 am 02:54 Clear 21 -6.1 7 -13.9 54 54 S 9 15 30.40 1030 10 16 0.00 0.00
3:54 am 03:54 Clear 21 -6.1 8 -13.3 57 57 SSW 5 7 30.38 1029 10 16 0.00 0.00
4:54 am 04:54 Clear 22 -5.6 10 -12.2 60 60 S 7 11 30.35 1028 10 16 0.00 0.00
5:54 am 05:54 Partly Cloudy 23 -5 11 -11.7 60 60 SSW 9 15 30.32 1027 10 16 0.00 0.00
6:54 am 06:54 Partly Cloudy 26 -3.3 12 -11.1 55 55 SSW 8 13 30.29 1026 10 16 0.00 0.00
7:54 am 07:54 Partly Cloudy 28 -2.2 16 -8.9 60 60 SSW 10 17 30.27 1025 10 16 0.00 0.00
8:54 am 08:54 Mostly Cloudy 31 -0.6 18 -7.8 59 59 SSW 15 24 30.24 1024 10 16 0.00 0.00
9:54 am 09:54 Mostly Cloudy 34 1.1 18 -7.8 52 52 SSW 17 28 30.23 1024 10 16 0.00 0.00
10:54 am 10:54 Mostly Cloudy 37 2.8 18 -7.8 46 46 SSW 17 28 30.21 1023 10 16 0.00 0.00
11:54 am 11:54 Mostly Cloudy 39 3.9 19 -7.2 45 45 SW 20 31 30.16 1021 10 16 0.00 0.00
12:54 pm 12:54 Mostly Cloudy 42 5.6 18 -7.8 38 38 SW 16 26 30.13 1020 10 16 0.00 0.00
1:54 pm 13:54 Mostly Cloudy 43 6.1 19 -7.2 38 38 SSW 12 19 30.10 1019 10 16 0.00 0.00
2:54 pm 14:54 Mostly Cloudy 43 6.1 20 -6.7 40 40 SSW 9 15 30.10 1019 10 16 0.00 0.00
3:54 pm 15:54 Mostly Cloudy 43 6.1 21 -6.1 42 42 SW 8 13 30.10 1019 10 16 0.00 0.00
4:54 pm 16:54 Mostly Cloudy 38 3.3 21 -6.1 51 51 SW 6 9 30.09 1019 10 16 0.00 0.00
5:54 pm 17:54 Mostly Cloudy 38 3.3 22 -5.6 52 52 SSW 5 7 30.09 1019 10 16 0.00 0.00
6:54 pm 18:54 Mostly Cloudy 36 2.2 23 -5 59 59 Calm 30.11 1020 10 16 0.00 0.00
7:54 pm 19:54 Mostly Cloudy 35 1.7 24 -4.4 64 64 Calm 30.11 1020 10 16 0.00 0.00
8:54 pm 20:54 Mostly Cloudy 35 1.7 26 -3.3 70 70 ESE 3 6 30.11 1020 10 16 0.00 0.00
9:54 pm 21:54 Mostly Cloudy 34 1.1 25 -3.9 70 70 Calm 30.10 1019 10 16 0.00 0.00
10:54 pm 22:54 Mostly Cloudy 34 1.1 24 -4.4 67 67 Calm 30.09 1019 10 16 0.00 0.00
11:54 pm 23:54 Mostly Cloudy 35 1.7 25 -3.9 67 67 Calm 30.08 1019 10 16 0.00 0.00

Powered by AerisWeather